[[{"header":{"parameterUnit":"m.s-1","parameterCategory":1,"la1":30.2991,"la2":30.254,"lo1":-89.0895,"lo2":-89.0444,"dy":0.0017,"dx":0.0017,"nx":28,"ny":28,"refTime":"2024-02-20T03:00:00:Z","depth":0,"parameterNumber":2,"parameterNumberName":"U-component_of_WINDS"},"data":[0,0,0,0,0,0,0,0,0,0,0,0,0,0,0,0,0,0,0,0,0,0,0,0,0,0,0,0,0,0,0,0,0,0,0,0,0,0,0,0,0,0,0,0,0,0,0,0,0,0,0,0,0,0,0,0,0,0,2.1693,2.1694,0,2.1797,2.1798,2.1799,2.1828,2.1828,2.1827,2.1827,2.1936,2.194,2.1943,0,0,0,0,0,0,0,0,0,0,0,0,0,2.1523,2.1526,2.1693,2.1694,2.1696,2.1797,2.1798,2.1799,2.1829,2.1828,2.1827,2.1826,2.1935,2.1939,2.1943,0,0,0,0,0,0,0,0,0,0,0,0,0,2.1609,2.1527,2.1693,2.1722,2.1726,2.1796,2.1798,2.18,2.1829,2.1828,2.1827,2.1826,2.1934,2.1939,2.1944,2.1994,0,0,2.196,2.1962,0,0,0,0,0,0,0,0,2.1604,2.1615,2.1717,2.172,2.1724,2.1799,2.1778,2.1865,2.1829,2.179,2.1827,2.1826,2.1891,2.19,2.1922,2.1999,2.2003,2.196,2.1963,2.1966,2.1967,0,0,0,0,0,0,0,2.1598,2.1611,2.1734,2.1718,2.1723,2.1731,2.1742,2.1795,2.1844,2.1793,2.1795,2.1807,2.1893,2.1916,2.1924,2.2005,2.196,2.1965,2.1968,2.197,2.2128,2.2129,0,0,0,0,0,0,2.1586,2.1605,2.1731,2.1737,2.1661,2.1735,2.1747,2.1776,2.1844,2.1853,2.1808,2.1808,2.1908,2.1918,2.1928,2.1991,2.1966,2.197,2.1973,2.2127,2.2129,2.213,0,0,0,0,0,0,2.1583,2.1597,2.1727,2.1672,2.1689,2.1739,2.177,2.1778,2.1801,2.1855,2.1864,2.1822,2.1908,2.1921,2.1977,2.1995,2.1973,2.1977,2.2126,2.2128,2.2129,2.2116,0,0,0,0,0,0,2.1578,2.1596,2.1614,2.1672,2.1692,2.1773,2.1771,2.1781,2.181,2.1811,2.1871,2.188,2.1908,2.1969,2.1982,2.2002,2.1982,2.2125,2.2127,2.2129,2.2115,2.2117,2.2119,0,0,0,0,0,2.1571,2.1607,2.1615,2.163,2.1716,2.1773,2.1785,2.1816,2.1811,2.1831,2.1865,2.1878,2.1991,2.1974,2.1989,2.2011,2.2124,2.2126,2.2128,2.2114,2.2116,2.2118,0,0,0,0,0,0,2.1551,2.1615,2.1625,2.168,2.1721,2.1778,2.1804,2.1817,2.1861,2.1861,2.1898,2.1912,2.1965,2.1994,2.1974,2.2063,2.2058,2.2063,2.2042,2.2044,2.2046,2.2038,2.1986,0,0,0,0,0,2.1553,2.1593,2.1648,2.1691,2.1711,2.1754,2.178,2.18,2.1845,2.1862,2.1901,2.1944,2.199,2.2019,2.2063,2.2119,2.2133,2.2142,2.2143,2.2145,2.2149,2.2181,2.2185,2.2138,2.2138,2.2138,0,0,2.1558,2.1598,2.1621,2.1688,2.1722,2.1764,2.1768,2.1812,2.1844,2.1869,2.1924,2.1954,2.2005,2.2061,2.2088,2.2087,2.2165,2.2148,2.2148,2.2152,2.2184,2.2188,2.2192,2.2139,2.2139,2.2139,0,0,2.1587,2.1621,2.1661,2.1695,2.1746,2.1774,2.1784,2.1839,2.186,2.1915,2.1935,2.1974,2.2051,2.2086,2.2114,2.2157,2.217,2.2171,2.218,2.221,2.2214,2.2217,2.2232,2.2237,2.2175,2.2175,2.2175,0,2.1586,2.1649,2.168,2.1723,2.1752,2.1776,2.1818,2.1849,2.1913,2.1933,2.193,2.2028,2.2064,2.2128,2.2138,2.2161,2.2173,2.2164,2.2211,2.2215,2.2218,2.2233,2.2239,2.2174,2.2174,2.2174,2.2174,0,2.1646,2.1689,2.1715,2.1774,2.1807,2.1849,2.1887,2.1916,2.1934,2.1962,2.2019,2.2063,2.2117,2.2134,2.2152,2.2201,2.2199,2.2203,2.2199,2.2222,2.2236,2.2242,2.2174,2.2174,2.2174,2.2174,0,0,2.1665,2.1741,2.175,2.1777,2.1835,2.187,2.1913,2.1965,2.1989,2.2032,2.2069,2.2134,2.2139,2.217,2.2193,2.222,2.225,2.2221,2.2223,2.2225,2.2307,2.2303,2.2309,2.2259,2.2261,2.2262,2.2303,0,2.1701,2.1778,2.1808,2.1871,2.1911,2.1935,2.1973,2.2013,2.2041,2.208,2.2112,2.2156,2.2159,2.2178,2.2206,2.224,2.2267,2.2238,2.2295,2.2297,2.2281,2.2316,2.2312,2.2349,2.2309,2.231,2.231,0,2.1754,2.1796,2.1863,2.1916,2.1934,2.1967,2.2017,2.2054,2.21,2.2119,2.2154,2.2175,2.2222,2.2214,2.228,2.2259,2.2285,2.2305,2.2307,2.2314,2.2304,2.2323,2.2361,2.2366,2.232,2.2319,2.2318,0,2.1761,2.1835,2.1884,2.1907,2.197,2.1993,2.202,2.2066,2.2095,2.2139,2.2158,2.2207,2.2234,2.2272,2.2305,2.2297,2.2368,2.2364,2.2385,2.2384,2.2398,2.2397,2.244,2.2415,2.2415,2.2415,2.2415,0,2.1798,2.1838,2.1888,2.1918,2.1964,2.1998,2.2042,2.2072,2.2112,2.2149,2.2173,2.2207,2.225,2.229,2.2317,2.2367,2.2379,2.2396,2.2402,2.2393,2.2391,2.241,2.2408,2.2417,2.2416,2.2416,2.2416,0,2.1813,2.1848,2.1903,2.1959,2.1973,2.2004,2.2052,2.2083,2.2112,2.2158,2.2171,2.2217,2.2266,2.2303,2.2367,2.2385,2.2437,2.2445,2.2421,2.2425,2.2444,2.2441,2.2501,2.251,2.2479,2.2479,2.2479,0,2.1834,2.1865,2.1923,2.1949,2.1976,2.2018,2.2048,2.2083,2.2113,2.2168,2.2192,2.2242,2.2284,2.236,2.24,2.2448,2.2457,2.2474,2.2464,2.2454,2.2457,2.2454,2.2458,2.2475,2.2476,2.2476,2.2476,0,2.1868,2.1884,2.1925,2.1972,2.2006,2.2046,2.2085,2.2106,2.2148,2.2181,2.223,2.2262,2.2326,2.2376,2.2428,2.2458,2.2474,2.2479,2.2486,2.2477,2.2462,2.247,2.2424,2.2477,2.2477,2.2477,2.2477,2.2477,2.1887,2.1915,2.196,2.2005,2.2039,2.2075,2.2107,2.2139,2.2181,2.2235,2.2254,2.2304,2.235,2.2422,2.2452,2.2493,2.2494,2.2505,2.2507,2.2509,2.2508,2.2456,2.2503,2.2503,2.2503,2.2503,2.2503,0,2.1921,2.1951,2.1992,2.2047,2.2082,2.2094,2.2138,2.2167,2.2211,2.2253,2.2293,2.2349,2.2397,2.2441,2.2491,2.2515,2.2524,2.2527,2.2526,2.2532,2.2505,2.2493,2.2519,2.2519,2.2519,2.2519,2.2519,2.2519,2.1943,2.1992,2.2013,2.2079,2.2109,2.2158,2.2183,2.2217,2.225,2.2311,2.2351,2.2378,2.2421,2.2474,2.2519,2.253,2.2548,2.2549,2.2562,2.2536,2.2534,2.2532,2.2521,2.2552,2.2552,2.2586,2.2586,2.2586]},{"header":{"parameterUnit":"m.s-1","parameterCategory":1,"la1":30.2991,"la2":30.254,"lo1":-89.0895,"lo2":-89.0444,"dy":0.0017,"dx":0.0017,"nx":28,"ny":28,"refTime":"2024-02-20T03:00:00:Z","depth":0,"parameterNumber":3,"parameterNumberName":"V-component_of_WINDS"},"data":[0,0,0,0,0,0,0,0,0,0,0,0,0,0,0,0,0,0,0,0,0,0,0,0,0,0,0,0,0,0,0,0,0,0,0,0,0,0,0,0,0,0,0,0,0,0,0,0,0,0,0,0,0,0,0,0,0,0,2.3066,2.3066,0,2.3038,2.3038,2.3038,2.3032,2.3032,2.3033,2.3033,2.3002,2.3001,2.3,0,0,0,0,0,0,0,0,0,0,0,0,0,2.3109,2.3108,2.3066,2.3066,2.3065,2.3039,2.3038,2.3038,2.3032,2.3032,2.3033,2.3033,2.3003,2.3002,2.3,0,0,0,0,0,0,0,0,0,0,0,0,0,2.3087,2.3108,2.3066,2.3059,2.3058,2.3039,2.3038,2.3038,2.3032,2.3032,2.3033,2.3033,2.3003,2.3002,2.3,2.2984,0,0,2.2996,2.2995,0,0,0,0,0,0,0,0,2.3088,2.3085,2.3061,2.306,2.3059,2.3039,2.3042,2.302,2.3032,2.3042,2.3033,2.3033,2.3014,2.3012,2.3006,2.2983,2.2982,2.2995,2.2995,2.2994,2.2993,0,0,0,0,0,0,0,2.309,2.3086,2.3055,2.306,2.3059,2.3056,2.3053,2.3038,2.3027,2.3041,2.3041,2.3038,2.3014,2.3007,2.3005,2.2981,2.2995,2.2994,2.2993,2.2993,2.294,2.294,0,0,0,0,0,0,2.3093,2.3088,2.3056,2.3054,2.3075,2.3055,2.3052,2.3045,2.3027,2.3024,2.3037,2.3037,2.301,2.3007,2.3004,2.2982,2.2994,2.2992,2.2992,2.2941,2.294,2.294,0,0,0,0,0,0,2.3094,2.309,2.3057,2.3071,2.3066,2.3054,2.3046,2.3044,2.3038,2.3024,2.3022,2.3033,2.301,2.3006,2.2989,2.2981,2.2992,2.299,2.2942,2.2941,2.294,2.294,0,0,0,0,0,0,2.3095,2.3091,2.3086,2.3071,2.3066,2.3044,2.3046,2.3044,2.3036,2.3036,2.3019,2.3017,2.301,2.2991,2.2987,2.2979,2.2989,2.2942,2.2941,2.294,2.2941,2.2939,2.2938,0,0,0,0,0,2.3097,2.3087,2.3086,2.3082,2.306,2.3043,2.304,2.3033,2.3035,2.3029,2.302,2.3018,2.2983,2.2989,2.2985,2.2977,2.2943,2.2941,2.294,2.2941,2.294,2.2938,0,0,0,0,0,0,2.3101,2.3085,2.3083,2.3069,2.3057,2.3042,2.3035,2.3032,2.3019,2.302,2.301,2.3006,2.2989,2.2981,2.2989,2.2958,2.2962,2.2961,2.2965,2.2963,2.2962,2.2964,2.2988,0,0,0,0,0,2.3101,2.309,2.3076,2.3064,2.3059,2.3048,2.304,2.3035,2.3023,2.3018,2.3007,2.2994,2.298,2.2971,2.2958,2.2939,2.2934,2.2931,2.293,2.2929,2.2927,2.2914,2.2911,2.2936,2.2936,2.2936,0,0,2.3099,2.3089,2.3083,2.3065,2.3055,2.3043,2.3044,2.3031,2.3021,2.3016,2.2999,2.299,2.2975,2.2956,2.2947,2.2949,2.2919,2.2928,2.2927,2.2926,2.2912,2.291,2.2908,2.2936,2.2936,2.2936,0,0,2.309,2.3082,2.307,2.306,2.3046,2.3038,2.3035,2.302,2.3014,2.2997,2.2992,2.2979,2.2955,2.2944,2.2935,2.2918,2.2914,2.2914,2.2907,2.2894,2.2892,2.289,2.2882,2.2879,2.2912,2.2912,2.2912,0,2.309,2.3072,2.3064,2.3051,2.3042,2.3037,2.3023,2.3014,2.2996,2.2989,2.2991,2.2959,2.2949,2.2926,2.2922,2.2915,2.291,2.2915,2.2893,2.2892,2.289,2.2881,2.2879,2.2912,2.2912,2.2912,2.2912,0,2.3071,2.3058,2.305,2.3033,2.3023,2.301,2.2998,2.2989,2.2984,2.2975,2.2956,2.2942,2.2925,2.2919,2.2915,2.2894,2.2895,2.2896,2.2899,2.2887,2.2879,2.2876,2.2912,2.2912,2.2912,2.2912,0,0,2.3065,2.3042,2.3039,2.303,2.3012,2.3001,2.2987,2.297,2.296,2.2947,2.2933,2.2912,2.2911,2.2901,2.2894,2.2883,2.2867,2.2884,2.2884,2.288,2.2841,2.284,2.2837,2.2865,2.2864,2.2864,2.2841,0,2.3053,2.3028,2.3019,2.2998,2.2984,2.2977,2.2964,2.295,2.2941,2.2927,2.2916,2.2901,2.2902,2.2895,2.2884,2.2872,2.2859,2.2873,2.2849,2.2849,2.2852,2.2833,2.2833,2.2812,2.2838,2.2838,2.2837,0,2.3036,2.3022,2.2999,2.298,2.2974,2.2963,2.2945,2.2932,2.2915,2.2909,2.2896,2.289,2.2871,2.2876,2.2849,2.2859,2.2848,2.284,2.2839,2.2836,2.2842,2.2827,2.2806,2.2802,2.2833,2.2833,2.2834,0,2.3032,2.3007,2.299,2.2982,2.2961,2.2952,2.2942,2.2926,2.2915,2.2899,2.2891,2.2873,2.2862,2.2847,2.2835,2.284,2.2808,2.2812,2.28,2.28,2.2794,2.2794,2.2769,2.2789,2.2789,2.2789,2.2789,0,2.3019,2.3004,2.2987,2.2977,2.2959,2.2948,2.2931,2.292,2.2905,2.289,2.2883,2.2869,2.2854,2.2837,2.2827,2.2805,2.2801,2.2793,2.2791,2.2793,2.2794,2.2786,2.2786,2.2788,2.2788,2.2788,2.2788,0,2.3012,2.3,2.298,2.2961,2.2955,2.2943,2.2925,2.2913,2.2902,2.2883,2.2878,2.2861,2.284,2.2827,2.2801,2.2794,2.2768,2.2767,2.2774,2.2773,2.2761,2.2761,2.2728,2.2722,2.2748,2.2747,2.2747,0,2.3004,2.2993,2.2971,2.2961,2.2951,2.2935,2.2924,2.2911,2.2899,2.2877,2.2867,2.2846,2.2828,2.2795,2.2779,2.2758,2.2755,2.2744,2.2752,2.2753,2.2752,2.2752,2.275,2.2743,2.2743,2.2743,2.2743,0,2.2991,2.2985,2.2969,2.295,2.2937,2.2921,2.2906,2.2897,2.2881,2.2868,2.2847,2.2833,2.2805,2.2783,2.2759,2.2747,2.2741,2.274,2.2736,2.2738,2.2742,2.2738,2.277,2.2741,2.2741,2.2742,2.2742,2.2742,2.2982,2.2971,2.2953,2.2935,2.2921,2.2906,2.2893,2.288,2.2862,2.2839,2.2832,2.2809,2.2789,2.2757,2.2744,2.2724,2.2725,2.272,2.2718,2.2716,2.2715,2.2746,2.272,2.272,2.272,2.272,2.272,0,2.2967,2.2955,2.2938,2.2916,2.29,2.2897,2.2878,2.2865,2.2845,2.2827,2.2809,2.2783,2.2761,2.2742,2.2718,2.2706,2.2702,2.27,2.27,2.2696,2.2717,2.2722,2.2703,2.2703,2.2703,2.2703,2.2703,2.2703,2.2957,2.2937,2.2928,2.2899,2.2887,2.2865,2.2854,2.2838,2.2824,2.2795,2.2776,2.2764,2.2745,2.2719,2.2697,2.2692,2.2682,2.268,2.2674,2.2693,2.2695,2.2697,2.2702,2.2679,2.2679,2.2655,2.2655,2.2655]}]]